K7OLI-13 Weather Reports


time (UTC)temp
C
wind
direction
speed
KPH
gust
KPH
rain 1hr
cm
rain 24hr
cm
rain mn
cm
humidity
%
barometer
mb
20260507072036 12 220 8.0 9.7 0.00 0.00 0.00 87 1018.1
20260507071026 12 193 6.4 9.7 0.00 0.00 0.00 87 1018.1
20260507070033 12 193 6.4 8.0 0.00 0.00 0.00 87 1018.1
20260507065022 12 212 6.4 8.0 0.00 0.00 0.00 87 1018.1
20260507064024 12 225 6.4 9.7 0.00 0.00 0.00 87 1018.1
20260507063020 12 195 6.4 9.7 0.00 0.00 0.00 87 1018.1
20260507062028 11 200 8.0 9.7 0.00 0.00 0.00 87 1018.1
20260507061036 11 206 8.0 9.7 0.00 0.00 0.00 87 1018.1
20260507060026 11 222 6.4 9.7 0.00 0.00 0.00 87 1018.1
20260507055035 11 222 9.7 12.9 0.00 0.00 0.00 87 1018.1
20260507054025 11 212 6.4 11.3 0.00 0.00 0.00 86 1018.1
20260507053030 12 231 9.7 14.5 0.00 0.00 0.00 86 1018.1
20260507052019 12 232 6.4 11.3 0.00 0.00 0.00 86 1018.1
20260507051048 12 234 6.4 9.7 0.00 0.00 0.00 86 1018.1
20260507050041 12 239 8.0 11.3 0.00 0.00 0.00 86 1018.1
20260507045025 12 231 9.7 12.9 0.00 0.00 0.00 86 1018.1
20260507044026 12 203 9.7 11.3 0.00 0.00 0.00 86 1018.1
20260507043022 12 215 12.9 17.7 0.00 0.00 0.00 85 1018.1
20260507042030 12 219 11.3 14.5 0.00 0.00 0.00 85 1017.1
20260507041019 12 237 12.9 16.1 0.00 0.00 0.00 85 1017.1
20260507040027 12 226 11.3 14.5 0.00 0.00 0.00 84 1017.1
20260507035037 12 226 16.1 19.3 0.00 0.00 0.00 84 1017.1
20260507034027 12 230 19.3 24.1 0.00 0.00 0.00 83 1017.1
20260507033033 13 220 14.5 20.9 0.00 0.00 0.00 82 1017.1
20260507032042 13 207 12.9 17.7 0.00 0.00 0.00 81 1017.1
20260507031030 14 227 12.9 16.1 0.00 0.00 0.00 79 1017.1
20260507030019 15 205 12.9 17.7 0.00 0.00 0.00 78 1017.1
20260507025027 15 208 11.3 19.3 0.00 0.00 0.00 77 1017.1
20260507024109 15 220 14.5 22.5 0.00 0.00 0.00 76 1017.1
20260507023044 16 207 12.9 17.7 0.00 0.00 0.00 75 1017.1
20260507022050 16 229 17.7 24.1 0.00 0.00 0.00 73 1017.1
20260507021021 16 208 12.9 19.3 0.00 0.00 0.00 73 1017.1
20260507020029 16 211 17.7 24.1 0.00 0.00 0.00 73 1017.1
20260507015039 16 219 17.7 27.4 0.00 0.00 0.00 72 1017.1
20260507014026 17 214 17.7 24.1 0.00 0.00 0.00 70 1017.1
20260507013019 17 233 16.1 20.9 0.00 0.00 0.00 70 1017.1
20260507012023 17 222 19.3 29.0 0.00 0.00 0.00 70 1017.1
20260507011031 18 229 17.7 20.9 0.00 0.00 0.00 69 1017.1
20260507010019 18 225 20.9 27.4 0.00 0.00 0.00 68 1017.1
20260507005026 18 224 16.1 22.5 0.00 0.00 0.00 68 1017.2
20260507004030 18 238 17.7 24.1 0.00 0.00 0.00 67 1017.2
20260507003023 19 243 16.1 20.9 0.00 0.00 0.00 65 1017.2
20260507002031 19 238 19.3 24.1 0.00 0.00 0.00 65 1017.2
20260507001020 20 235 19.3 24.1 0.00 0.00 0.00 64 1016.4
20260507000028 20 233 14.5 20.9 0.00 0.00 0.00 62 1016.2
20260506235036 20 223 16.1 20.9 0.00 0.00 0.00 63 1017.2
20260506234025 20 254 12.9 19.3 0.00 0.00 0.00 62 1016.4
20260506233021 21 239 14.5 20.9 0.00 0.00 0.00 62 1016.2
20260506232022 21 234 16.1 20.9 0.00 0.00 0.00 62 1016.2
20260506231030 21 242 14.5 19.3 0.00 0.00 0.00 62 1016.2
20260506230039 22 225 17.7 20.9 0.00 0.00 0.00 61 1016.2
20260506225027 22 225 9.7 17.7 0.00 0.00 0.00 62 1017.2
20260506224055 22 235 11.3 12.9 0.00 0.00 0.00 61 1017.2
20260506223024 22 235 9.7 12.9 0.00 0.00 0.00 58 1017.2
20260506222034 22 208 6.4 9.7 0.00 0.00 0.00 57 1017.2
20260506221021 22 189 9.7 12.9 0.00 0.00 0.00 58 1017.2
20260506220049 22 218 4.8 9.7 0.00 0.00 0.00 57 1017.2
20260506215036 22 252 6.4 11.3 0.00 0.00 0.00 58 1017.2
20260506214025 22 222 8.0 12.9 0.00 0.00 0.00 57 1017.2
20260506213043 22 175 9.7 12.9 0.00 0.00 0.00 58 1017.2
20260506212023 22 230 8.0 11.3 0.00 0.00 0.00 60 1017.2
20260506211031 21 181 8.0 11.3 0.00 0.00 0.00 63 1017.2
20260506210020 21 213 9.7 12.9 0.00 0.00 0.00 62 1017.2
20260506205028 21 159 8.0 11.3 0.00 0.00 0.00 63 1017.2
20260506204036 21 195 4.8 9.7 0.00 0.00 0.00 64 1017.2
20260506203025 20 191 6.4 9.7 0.00 0.00 0.00 66 1017.2
20260506202055 20 177 6.4 11.3 0.00 0.00 0.00 66 1018.2
20260506201022 19 196 8.0 14.5 0.00 0.00 0.00 70 1018.2
20260506200030 19 196 8.0 12.9 0.00 0.00 0.00 71 1018.2
20260506195040 19 172 6.4 12.9 0.00 0.00 0.00 71 1018.2
20260506194027 19 176 8.0 11.3 0.00 0.00 0.00 70 1018.2
20260506193025 19 148 9.7 14.5 0.00 0.00 0.00 69 1018.2
20260506192026 19 122 9.7 12.9 0.00 0.00 0.00 70 1018.2
20260506191054 18 146 6.4 11.3 0.00 0.00 0.00 73 1018.2
20260506190022 17 116 8.0 11.3 0.00 0.00 0.00 75 1018.2
20260506185029 17 170 8.0 12.9 0.00 0.00 0.00 76 1018.2
20260506184018 16 187 9.7 11.3 0.00 0.00 0.00 78 1018.1
20260506183027 16 165 8.0 12.9 0.00 0.00 0.00 78 1018.1
20260506182055 16 173 6.4 11.3 0.00 0.00 0.00 79 1018.1
20260506181046 16 173 8.0 14.5 0.00 0.00 0.00 78 1018.1
20260506180034 15 95 8.0 11.3 0.00 0.00 0.00 81 1018.1
20260506175021 15 165 4.8 8.0 0.00 0.00 0.00 82 1018.1
20260506174049 15 157 6.4 11.3 0.00 0.00 0.00 84 1018.1
20260506173028 14 171 4.8 8.0 0.00 0.00 0.00 85 1018.1
20260506172026 14 191 9.7 12.9 0.00 0.00 0.00 84 1018.1
20260506171035 14 162 4.8 6.4 0.00 0.00 0.00 85 1018.1
20260506170046 14 203 6.4 8.0 0.00 0.00 0.00 86 1018.1
20260506165031 13 162 4.8 8.0 0.00 0.00 0.00 87 1018.1
20260506164101 13 198 8.0 12.9 0.00 0.00 0.00 87 1018.1
20260506163109 13 172 4.8 9.7 0.00 0.00 0.00 89 1018.1
20260506162036 13 189 8.0 11.3 0.00 0.00 0.00 87 1018.1
20260506161026 13 134 4.8 12.9 0.00 0.00 0.00 87 1017.2
20260506160035 13 98 6.4 11.3 0.00 0.00 0.00 86 1017.2
20260506155023 13 175 3.2 6.4 0.00 0.00 0.00 88 1018.1
20260506154031 12 211 6.4 9.7 0.00 0.00 0.00 89 1018.1
20260506153020 12 199 8.0 11.3 0.00 0.00 0.00 90 1018.1
20260506152100 12 229 9.7 14.5 0.00 0.00 0.00 90 1018.1
20260506151036 12 244 8.0 11.3 0.00 0.00 0.00 90 1018.1
20260506150027 12 222 9.7 12.9 0.00 0.00 0.00 89 1018.1
20260506145034 12 208 9.7 14.5 0.00 0.00 0.00 88 1017.1
20260506144022 13 177 9.7 11.3 0.00 0.00 0.00 88 1017.1
20260506143030 13 187 6.4 9.7 0.00 0.00 0.00 87 1017.1
20260506142020 12 182 6.4 8.0 0.00 0.00 0.00 90 1016.1
20260506141027 12 158 8.0 9.7 0.00 0.00 0.00 91 1016.9
20260506140035 12 157 9.7 12.9 0.00 0.00 0.00 91 1017.1
20260506135027 12 159 6.4 8.0 0.00 0.00 0.00 90 1017.1
20260506134033 12 146 8.0 9.7 0.00 0.00 0.00 90 1016.4
20260506133022 12 149 4.8 8.0 0.00 0.00 0.00 92 1016.2
20260506132021 12 113 4.8 8.0 0.00 0.00 0.00 92 1016.2
20260506131019 12 112 4.8 6.4 0.00 0.00 0.00 91 1016.2
20260506130047 12 126 4.8 6.4 0.00 0.00 0.00 89 1016.1
20260506125035 12 183 11.3 17.7 0.00 0.00 0.00 89 1016.1
20260506124024 12 200 8.0 14.5 0.00 0.00 0.00 89 1016.1
20260506123032 12 187 8.0 11.3 0.00 0.00 0.00 90 1016.1
20260506122023 12 198 9.7 12.9 0.00 0.00 0.00 90 1016.1
20260506121049 12 200 11.3 16.1 0.00 0.00 0.00 90 1016.1
20260506120037 12 205 11.3 14.5 0.00 0.00 0.00 91 1016.1
20260506115026 11 220 9.7 17.7 0.00 0.00 0.00 91 1016.1
20260506114034 11 228 11.3 14.5 0.00 0.00 0.00 91 1015.4
20260506113024 11 217 11.3 14.5 0.00 0.00 0.00 92 1015.2
20260506112023 11 201 12.9 17.7 0.00 0.00 0.00 92 1015.2
20260506111020 11 216 11.3 17.7 0.00 0.00 0.00 92 1015.1
20260506110028 11 207 14.5 24.1 0.00 0.00 0.00 93 1015.1
20260506105036 11 209 12.9 16.1 0.00 0.00 0.00 93 1015.1
20260506104045 11 196 8.0 11.3 0.00 0.00 0.00 94 1015.1
20260506103034 11 208 11.3 17.7 0.00 0.00 0.00 94 1015.1
20260506102026 11 206 8.0 11.3 0.00 0.00 0.00 94 1014.1
20260506101030 11 210 8.0 11.3 0.00 0.00 0.00 93 1014.1
20260506100040 11 193 8.0 9.7 0.00 0.00 0.00 93 1014.1
20260506095047 11 204 6.4 8.0 0.00 0.00 0.00 93 1014.1
20260506094036 11 207 6.4 8.0 0.00 0.00 0.00 93 1014.1
20260506093024 11 203 6.4 11.3 0.00 0.00 0.00 92 1014.1
20260506092027 11 212 6.4 9.7 0.00 0.00 0.00 92 1014.1
20260506091022 11 218 4.8 6.4 0.00 0.00 0.00 92 1014.1
20260506090030 12 203 3.2 3.2 0.00 0.00 0.00 91 1014.1
20260506085019 12 215 0.0 1.6 0.00 0.00 0.00 90 1014.1
20260506084028 12 245 3.2 3.2 0.00 0.00 0.00 90 1014.1
20260506083037 12 248 0.0 3.2 0.00 0.00 0.00 88 1014.1
20260506082026 13 219 1.6 4.8 0.00 0.00 0.00 88 1014.1
20260506081034 13 222 4.8 8.0 0.00 0.00 0.00 87 1014.1
20260506073027 13 223 8.0 11.3 0.00 0.00 0.00 86 1014.1